Temp
66 68 69 69 57 51 48 54 61 65 66 77 78 75 68 70 72 62 74 76 75 72 73 73 73 74 74 74 74 75 75 75 75 75 75 75 75 75 75 75 76 76 77 77 76 76 75 73 72
69 74 69 61 50 43 49 58 62 68 75 79 76 74 70 68 74 69 70 74 74 73 73 73 73 73 74 74 74 75 75 75 75 75 75 75 75 75 75 75 75 76 76 76 76 75 73 72 71
72 75 63 55 46 45 49 63 66 75 80 79 75 74 72 70 73 72 73 74 74 73 73 73 72 73 74 74 74 74 74 74 74 74 75 75 75 75 75 74 74 75 76 75 75 72 71 70 70
72 67 62 51 49 58 60 70 72 74 78 81 74 69 74 79 76 73 75 75 73 72 73 71 71 72 73 74 74 74 74 73 73 74 74 75 74 74 73 73 74 75 74 73 72 71 70 69 69
68 60 51 45 50 58 66 73 74 73 74 77 78 69 69 76 76 75 74 75 72 71 70 70 70 72 73 74 74 73 73 72 72 73 73 73 73 73 72 72 72 72 72 71 70 69 69 69 69
62 58 46 44 52 63 68 73 74 74 77 77 71 70 69 75 74 74 75 74 73 69 69 70 71 72 72 73 72 72 72 72 72 72 72 72 72 71 71 71 71 70 70 69 69 68 68 68 68
59 53 49 47 53 60 67 74 72 72 74 76 76 64 68 72 75 76 74 74 70 69 69 69 70 71 71 70 71 70 71 71 71 71 71 71 70 70 70 70 70 69 69 68 68 67 67 68 68
63 57 48 49 56 57 66 74 76 73 71 83 77 63 62 71 72 75 71 69 68 68 68 68 68 69 69 70 69 69 69 69 70 70 69 69 68 69 69 68 69 68 68 67 67 67 67 67 67
65 52 48 51 56 64 73 70 75 75 72 74 75 72 76 75 72 69 67 66 66 67 67 67 67 67 67 67 70 69 69 69 69 69 68 66 64 64 65 65 68 68 67 67 67 66 66 66 66
60 51 56 63 67 66 71 70 71 70 70 72 70 74 77 70 69 67 65 65 65 65 66 67 67 67 67 69 67 67 69 69 68 67 65 63 60 60 63 65 67 67 67 67 67 66 66 63 58
58 54 62 67 69 70 67 68 68 64 65 71 69 69 72 68 67 67 67 67 67 66 66 67 67 67 67 67 66 67 67 66 65 64 63 60 60 59 57 56 58 56 63 57 60 59 57 58 56
58 66 65 67 68 67 64 67 68 65 69 76 72 72 72 69 67 67 66 68 68 67 66 68 68 66 66 66 67 67 66 65 64 64 62 60 58 56 55 53 52 52 52 53 53 53 55 56 57
60 63 67 69 69 65 69 65 67 69 72 75 75 72 71 70 69 69 68 69 70 67 68 68 68 66 66 65 67 66 67 65 65 63 62 60 58 55 54 52 51 51 52 52 52 53 55 55 55
63 63 63 64 64 65 65 66 61 71 73 73 74 70 70 71 70 69 67 66 68 70 69 69 68 68 66 66 67 66 67 67 64 62 62 59 59 56 54 53 53 51 52 52 53 53 53 53 54
64 57 61 65 61 63 63 62 62 70 71 72 76 76 71 71 72 70 69 67 67 69 71 69 69 67 66 68 67 67 67 67 65 62 62 60 59 56 54 54 53 53 52 53 53 52 52 51 54
57 54 49 61 63 66 62 55 68 74 70 70 73 75 75 70 71 73 72 71 69 69 70 70 70 67 67 67 68 68 68 67 66 63 62 60 59 58 54 53 53 53 53 54 53 53 51 51 53
48 44 48 54 65 62 60 55 67 72 71 69 72 74 74 70 71 73 74 72 70 69 68 68 69 67 66 67 66 67 67 67 66 64 62 60 59 58 55 54 52 53 54 53 55 50 53 51 50
42 44 50 49 58 63 60 60 65 67 66 65 66 64 66 68 69 73 74 72 70 68 67 67 68 67 67 66 66 65 63 65 63 62 62 59 60 57 55 53 53 53 53 51 51 52 50 50 51
53 50 49 55 62 59 58 60 64 64 64 63 65 66 67 66 69 72 74 72 68 67 66 66 67 67 66 64 63 62 61 62 62 62 61 61 59 58 55 54 52 51 54 53 51 49 50 48 49
53 51 50 57 61 60 59 58 62 62 63 63 57 55 56 59 61 63 63 70 67 66 65 66 66 67 67 67 65 64 62 58 60 59 59 59 58 57 55 55 55 53 51 50 49 49 47 47 51
53 50 51 51 56 57 54 53 54 60 63 59 58 58 59 58 58 60 62 60 70 66 65 65 66 66 67 68 66 60 58 57 57 57 58 57 58 57 55 55 53 53 52 53 51 48 49 48 47
46 57 56 53 47 42 52 40 54 55 53 55 56 55 55 56 60 61 60 59 59 67 67 67 66 67 67 66 64 59 59 55 57 56 57 56 57 55 54 54 53 51 50 50 51 49 47 49 49
50 56 53 50 43 40 46 39 51 53 47 50 50 49 49 51 54 56 59 60 58 58 65 65 64 65 64 63 62 59 59 61 59 55 54 55 55 56 54 53 52 50 50 51 50 48 47 46 45
57 50 49 46 42 34 45 42 45 40 44 45 48 48 49 50 51 53 55 59 59 57 58 62 63 63 63 62 60 59 59 58 55 54 53 53 53 53 54 53 51 49 49 49 49 49 48 45 46
49 41 29 30 30 34 45 40 45 42 45 45 44 45 46 48 49 51 52 53 55 56 56 56 60 60 61 60 59 59 59 58 56 54 54 52 52 52 52 51 50 50 49 49 49 48 47 47 47
43 43 31 26 27 31 42 35 39 45 47 48 49 49 52 52 52 51 51 51 53 54 56 56 55 59 60 59 58 57 56 55 56 55 55 54 53 53 53 52 51 49 48 48 47 45 45 45 44
43 38 43 33 33 31 35 37 42 45 46 45 45 47 48 51 52 51 52 52 50 50 52 53 55 58 58 57 56 55 54 55 56 56 56 54 54 54 51 50 49 48 48 47 46 44 43 44 43
46 47 34 34 24 25 32 35 33 39 41 44 43 47 50 53 54 54 51 53 53 54 52 53 53 55 57 56 55 54 55 54 54 54 54 53 53 52 50 49 47 46 45 45 44 42 41 41 40
39 36 36 35 30 24 25 31 38 40 42 41 44 48 50 52 52 51 50 51 52 52 51 51 51 51 53 55 54 53 53 54 54 54 53 52 52 51 50 48 46 45 44 43 42 41 41 40 40
45 39 35 23 22 28 27 28 42 38 40 44 46 50 50 49 50 51 49 50 51 51 52 51 50 51 51 52 54 53 53 53 53 51 51 51 50 50 49 48 46 45 43 42 41 41 41 39 38
MSLP
1011.45 1011.61 1011.40 1011.82 1013.39 1013.61 1012.78 1011.24 1009.32 1008.01 1006.72 1004.88 1004.39 1004.98 1005.94 1006.22 1006.78 1008.58 1007.46 1007.43 1008.26 1009.77 1010.35 1010.60 1011.08 1011.23 1011.43 1011.70 1012.28 1012.84 1013.21 1013.28 1013.64 1014.00 1014.41 1014.79 1015.13 1015.48 1015.76 1015.93 1016.08 1016.21 1016.39 1016.52 1016.79 1016.94 1016.99 1017.05 1017.22
1011.20 1011.50 1011.86 1012.66 1013.60 1013.51 1011.70 1009.74 1008.58 1007.04 1005.99 1004.54 1004.96 1005.51 1005.81 1006.43 1006.71 1007.66 1008.20 1008.86 1008.58 1009.77 1010.62 1010.80 1011.15 1011.19 1011.52 1011.71 1012.26 1012.79 1013.25 1013.46 1013.69 1014.04 1014.37 1014.79 1015.18 1015.56 1015.84 1015.99 1016.29 1016.45 1016.57 1016.75 1017.07 1017.18 1017.36 1017.39 1017.45
1011.08 1010.98 1012.32 1013.09 1013.26 1012.68 1010.92 1008.81 1007.63 1006.19 1005.19 1004.80 1004.78 1005.13 1005.60 1006.14 1006.92 1007.24 1007.59 1008.84 1009.14 1009.90 1010.37 1011.04 1011.47 1011.44 1011.64 1011.73 1012.15 1012.79 1013.16 1013.58 1013.83 1014.14 1014.36 1014.72 1015.17 1015.54 1015.89 1016.16 1016.43 1016.56 1016.76 1016.95 1017.39 1017.60 1017.74 1017.79 1017.72
1011.04 1011.88 1012.77 1013.04 1012.82 1010.98 1009.76 1008.51 1007.34 1005.77 1004.69 1003.99 1004.25 1005.42 1005.61 1005.48 1005.92 1006.77 1007.31 1008.51 1009.21 1010.05 1010.13 1010.81 1011.61 1011.57 1011.76 1011.88 1012.13 1012.71 1013.09 1013.58 1013.88 1014.35 1014.47 1014.78 1015.18 1015.59 1015.84 1016.30 1016.56 1016.84 1017.14 1017.41 1017.80 1018.03 1018.05 1018.14 1018.00
1011.10 1012.40 1013.25 1013.31 1012.07 1010.34 1008.99 1007.74 1006.47 1005.38 1004.27 1003.82 1003.84 1005.22 1006.14 1006.15 1006.26 1006.82 1007.47 1008.08 1008.87 1009.94 1010.24 1010.88 1011.32 1011.75 1011.76 1011.92 1012.25 1012.78 1013.15 1013.62 1013.87 1014.33 1014.67 1014.97 1015.41 1015.72 1016.04 1016.32 1016.78 1017.15 1017.40 1017.68 1017.97 1018.24 1018.40 1018.30 1018.39
1011.75 1012.81 1013.60 1013.16 1011.61 1009.66 1008.33 1007.29 1005.90 1004.93 1004.31 1003.82 1004.56 1005.61 1006.56 1006.78 1006.90 1007.44 1007.52 1007.99 1008.73 1009.49 1010.15 1010.82 1011.31 1011.71 1011.81 1011.95 1012.18 1012.70 1013.36 1013.78 1013.92 1014.28 1014.71 1015.07 1015.61 1015.97 1016.23 1016.48 1016.85 1017.34 1017.72 1017.84 1018.02 1018.39 1018.63 1018.57 1018.68
1011.79 1012.75 1012.72 1012.38 1011.52 1009.37 1007.91 1006.49 1005.84 1005.18 1004.42 1004.01 1004.75 1006.31 1006.91 1007.38 1007.40 1007.57 1008.04 1008.54 1008.96 1009.72 1010.29 1010.98 1011.30 1011.56 1011.85 1012.02 1012.29 1012.59 1013.27 1013.83 1014.11 1014.29 1014.65 1015.07 1015.59 1016.12 1016.47 1016.70 1016.75 1017.23 1017.81 1018.01 1018.18 1018.39 1018.56 1018.86 1019.08
1010.91 1012.13 1011.95 1011.75 1010.94 1008.65 1007.21 1006.40 1005.45 1004.96 1004.56 1004.06 1004.41 1006.05 1007.12 1006.97 1007.15 1007.67 1008.44 1008.99 1009.45 1009.77 1010.40 1010.94 1011.57 1011.66 1011.84 1012.27 1012.47 1012.74 1013.24 1013.70 1014.18 1014.53 1014.57 1015.13 1015.80 1016.16 1016.44 1016.81 1017.02 1017.12 1017.38 1017.76 1018.21 1018.63 1018.79 1018.97 1019.19
1010.53 1011.59 1011.56 1010.67 1010.00 1007.91 1006.43 1006.26 1005.39 1004.63 1004.61 1004.51 1004.89 1004.80 1004.65 1006.08 1007.19 1007.88 1008.78 1009.44 1009.67 1010.03 1010.28 1010.85 1011.34 1011.86 1011.89 1012.30 1012.64 1012.84 1013.29 1013.76 1014.12 1014.53 1014.67 1015.38 1015.77 1016.22 1016.58 1016.75 1016.99 1017.33 1017.58 1017.76 1017.99 1018.30 1018.70 1019.20 1019.48
1010.12 1010.68 1009.85 1009.25 1008.55 1007.72 1006.48 1006.14 1005.43 1004.95 1004.86 1004.48 1004.73 1005.02 1005.58 1006.44 1007.07 1007.63 1008.16 1008.76 1009.36 1009.50 1009.96 1010.33 1011.12 1011.67 1011.77 1012.07 1012.65 1012.89 1013.32 1013.87 1014.19 1014.59 1015.06 1015.66 1015.95 1016.16 1016.55 1016.80 1017.03 1017.20 1017.53 1017.93 1018.27 1018.46 1018.65 1019.03 1019.55
1009.66 1009.62 1009.24 1008.19 1007.88 1007.42 1006.80 1006.08 1005.41 1005.00 1004.87 1004.76 1005.05 1005.77 1006.53 1007.27 1007.59 1007.65 1007.95 1007.75 1008.00 1008.95 1009.57 1010.00 1010.46 1011.17 1011.61 1011.88 1012.54 1012.88 1013.25 1013.84 1014.26 1014.70 1015.25 1015.73 1016.15 1016.33 1016.66 1017.01 1017.24 1017.62 1017.71 1018.13 1018.39 1018.63 1018.89 1019.17 1019.69
1009.39 1008.94 1008.78 1007.92 1007.34 1007.26 1006.98 1006.20 1005.48 1005.13 1004.81 1004.45 1004.66 1004.98 1006.09 1006.97 1007.36 1007.41 1007.73 1007.95 1008.44 1008.84 1009.36 1009.81 1010.42 1010.97 1011.39 1011.79 1012.12 1012.61 1013.15 1013.66 1014.19 1014.63 1015.19 1015.78 1016.25 1016.50 1016.79 1017.09 1017.29 1017.63 1017.96 1018.39 1018.74 1019.01 1019.09 1019.28 1019.72
1009.26 1008.83 1008.15 1007.54 1007.14 1006.92 1006.51 1006.08 1005.64 1004.59 1004.09 1003.78 1004.04 1004.97 1005.42 1005.83 1006.30 1006.83 1007.37 1007.93 1008.42 1008.86 1009.19 1009.36 1009.80 1010.49 1010.98 1011.64 1011.95 1012.47 1012.78 1013.19 1013.77 1014.33 1014.81 1015.39 1016.06 1016.47 1016.72 1017.15 1017.37 1017.57 1017.89 1018.22 1018.66 1018.99 1019.28 1019.61 1019.89
1009.13 1008.86 1008.20 1007.50 1007.21 1006.72 1006.52 1005.44 1004.98 1003.73 1003.50 1003.53 1003.55 1004.11 1004.50 1004.94 1005.16 1005.80 1006.54 1006.93 1007.35 1007.84 1008.16 1008.82 1009.52 1009.94 1010.26 1010.99 1011.65 1012.26 1012.45 1012.86 1013.46 1014.05 1014.43 1015.20 1015.65 1016.16 1016.57 1017.09 1017.36 1017.61 1017.80 1018.07 1018.42 1018.84 1019.27 1019.69 1020.05
1009.43 1009.13 1008.43 1007.45 1007.22 1006.81 1006.50 1004.93 1004.60 1003.70 1003.43 1003.30 1003.03 1002.96 1003.61 1003.83 1004.27 1004.76 1004.64 1004.90 1005.05 1005.73 1006.58 1007.39 1008.17 1009.18 1009.83 1009.93 1010.67 1011.64 1011.87 1012.28 1012.74 1013.46 1013.91 1014.53 1015.19 1015.79 1016.16 1016.58 1017.12 1017.29 1017.59 1017.87 1018.36 1018.81 1019.27 1019.73 1019.97
1009.93 1009.81 1009.05 1007.55 1007.37 1006.64 1006.58 1003.99 1004.14 1003.49 1003.81 1003.35 1002.90 1002.63 1002.51 1002.76 1002.85 1002.81 1003.24 1003.79 1004.81 1005.63 1005.89 1006.44 1007.34 1008.11 1008.75 1009.29 1009.83 1010.54 1011.09 1011.63 1012.08 1012.74 1013.50 1014.00 1014.40 1015.10 1015.76 1016.22 1016.66 1016.93 1017.48 1017.75 1018.22 1018.77 1019.39 1019.80 1020.18
1010.32 1009.99 1009.21 1008.20 1006.91 1006.57 1006.03 1004.43 1003.75 1003.12 1003.07 1003.04 1002.80 1002.34 1001.91 1001.97 1002.34 1002.12 1002.22 1002.61 1003.61 1004.42 1005.38 1005.80 1006.22 1006.62 1007.27 1008.11 1009.06 1009.68 1010.27 1010.78 1011.30 1011.95 1012.59 1013.09 1013.82 1014.40 1015.13 1015.74 1016.32 1016.63 1017.17 1017.54 1017.82 1018.62 1019.09 1019.78 1020.32
1010.49 1009.89 1008.90 1008.43 1007.00 1006.24 1005.36 1003.75 1003.81 1003.44 1003.32 1003.20 1002.98 1002.55 1002.39 1001.83 1001.52 1001.09 1001.32 1002.15 1002.92 1003.60 1004.44 1005.28 1005.73 1006.31 1006.73 1007.47 1008.34 1009.23 1009.87 1010.60 1010.81 1011.56 1011.95 1012.84 1012.80 1013.68 1014.56 1015.32 1016.03 1016.40 1016.97 1017.54 1017.92 1018.21 1018.93 1019.54 1020.08
1010.34 1009.79 1008.78 1008.32 1007.55 1006.62 1005.51 1003.05 1003.68 1003.61 1003.32 1003.77 1003.38 1003.00 1002.55 1002.43 1002.32 1001.37 1000.24 1000.80 1001.87 1002.90 1003.57 1004.02 1004.72 1005.22 1006.13 1006.70 1007.17 1008.02 1008.60 1009.49 1010.24 1010.69 1011.39 1011.96 1012.65 1013.14 1013.83 1014.72 1015.63 1016.17 1016.60 1016.98 1017.59 1018.26 1018.63 1019.72 1020.04
1009.89 1009.33 1008.27 1007.43 1007.00 1006.58 1005.71 1002.79 1003.91 1003.68 1003.89 1004.69 1005.38 1005.46 1005.44 1004.47 1003.77 1003.82 1003.16 1002.62 1001.81 1001.39 1002.13 1002.97 1003.30 1004.12 1004.72 1005.18 1005.98 1007.08 1007.84 1009.01 1009.66 1010.34 1010.83 1011.40 1011.92 1012.51 1013.28 1014.05 1015.02 1015.77 1016.37 1016.92 1017.36 1017.68 1018.57 1019.36 1019.65
1009.33 1009.16 1008.38 1007.49 1007.27 1006.62 1006.11 1003.79 1004.05 1003.91 1004.70 1005.84 1006.35 1006.59 1006.04 1005.67 1005.09 1003.98 1003.70 1003.42 1002.53 1002.05 1001.68 1002.14 1002.96 1002.63 1003.04 1004.31 1005.91 1007.14 1008.15 1009.03 1009.47 1009.95 1010.54 1011.10 1011.62 1012.41 1012.90 1013.43 1014.33 1015.05 1015.82 1016.44 1016.88 1017.26 1017.65 1018.52 1019.43
1008.47 1008.49 1007.78 1007.62 1007.71 1007.24 1006.90 1005.88 1004.16 1004.72 1006.16 1007.02 1007.74 1007.47 1007.25 1006.72 1006.02 1005.39 1004.49 1004.11 1003.53 1002.41 1002.52 1002.87 1002.11 1003.16 1003.42 1003.98 1004.91 1006.08 1006.44 1007.76 1008.43 1009.23 1010.08 1010.87 1011.37 1012.14 1012.82 1013.19 1013.77 1014.63 1015.41 1016.18 1016.77 1017.08 1017.42 1017.71 1018.87
1007.60 1007.88 1007.92 1008.05 1008.21 1007.95 1007.12 1007.94 1003.96 1005.55 1007.07 1007.83 1008.87 1009.56 1009.05 1008.14 1007.34 1006.87 1005.95 1004.86 1004.51 1003.65 1002.53 1003.04 1003.41 1003.58 1003.68 1003.49 1004.35 1005.59 1006.49 1006.83 1007.75 1008.77 1009.67 1010.53 1011.11 1011.68 1012.38 1013.00 1013.53 1014.21 1014.84 1015.60 1016.26 1016.91 1017.41 1017.66 1018.39
1007.89 1008.13 1008.18 1008.46 1008.99 1008.92 1007.28 1008.21 1006.25 1007.48 1008.30 1009.01 1009.66 1010.11 1009.86 1009.03 1008.09 1007.47 1006.81 1006.09 1005.07 1004.50 1004.30 1002.85 1003.08 1003.09 1003.35 1003.57 1003.88 1004.33 1005.12 1006.32 1007.23 1008.32 1009.32 1010.12 1010.93 1011.63 1012.26 1012.82 1013.34 1014.03 1014.62 1015.26 1016.00 1016.53 1017.16 1017.87 1018.17
1008.57 1009.09 1009.89 1010.15 1010.15 1008.62 1008.36 1008.66 1007.46 1008.84 1009.55 1009.96 1010.12 1010.08 1009.90 1009.24 1008.74 1007.99 1007.36 1006.64 1006.72 1006.17 1005.31 1004.91 1003.88 1003.29 1003.17 1003.35 1003.51 1003.80 1004.55 1005.31 1006.29 1007.26 1008.28 1009.22 1010.28 1010.99 1011.60 1012.47 1013.08 1013.67 1014.37 1015.12 1015.81 1016.58 1016.85 1017.68 1018.22
1009.90 1010.32 1011.24 1011.09 1010.65 1010.11 1009.54 1009.08 1008.43 1009.16 1009.80 1010.23 1010.56 1010.45 1009.17 1008.45 1008.28 1007.92 1008.27 1007.66 1007.53 1007.67 1006.33 1006.01 1005.41 1004.46 1003.66 1004.03 1004.21 1004.19 1005.31 1004.79 1005.80 1007.00 1007.61 1008.50 1009.27 1009.95 1010.86 1011.96 1012.74 1013.45 1013.97 1014.81 1015.67 1016.48 1017.15 1017.72 1018.04
1010.58 1011.11 1011.72 1012.13 1011.82 1011.88 1010.43 1009.77 1009.78 1009.85 1010.18 1010.16 1010.13 1010.18 1009.63 1009.06 1008.20 1007.88 1008.10 1006.48 1007.33 1007.86 1007.19 1006.84 1006.34 1005.68 1004.33 1003.50 1003.32 1003.90 1004.45 1005.98 1005.73 1006.23 1007.19 1007.89 1008.80 1009.68 1010.55 1011.51 1012.53 1013.44 1014.23 1014.94 1015.74 1016.57 1017.23 1018.09 1018.43
1010.61 1011.42 1012.52 1013.09 1012.98 1011.73 1010.53 1010.18 1009.60 1010.16 1010.47 1010.37 1010.49 1010.32 1009.48 1008.70 1007.85 1007.30 1007.40 1006.91 1006.98 1006.75 1006.41 1006.07 1006.36 1006.77 1005.93 1006.06 1005.15 1005.30 1005.37 1005.50 1005.76 1006.62 1007.18 1007.55 1008.43 1009.52 1010.46 1011.42 1012.37 1013.40 1014.32 1015.12 1015.71 1016.60 1017.33 1017.89 1019.12
1011.71 1012.01 1012.90 1013.74 1013.88 1013.10 1011.82 1010.54 1009.93 1010.14 1010.08 1010.48 1010.47 1009.76 1008.88 1008.31 1008.07 1007.36 1007.45 1007.18 1006.75 1006.80 1006.15 1005.58 1005.91 1006.66 1006.67 1006.47 1005.57 1005.99 1006.40 1006.00 1005.82 1006.25 1006.97 1007.44 1008.32 1009.25 1010.23 1011.15 1012.11 1013.23 1014.17 1015.12 1015.69 1016.68 1017.72 1018.46 1019.36
1011.97 1012.45 1013.10 1014.12 1014.35 1013.69 1012.72 1011.25 1010.78 1010.98 1011.01 1010.64 1009.95 1009.01 1008.43 1007.96 1007.64 1007.18 1006.97 1006.88 1006.73 1006.36 1005.71 1005.37 1005.54 1006.24 1005.39 1005.78 1006.60 1006.64 1007.11 1006.26 1006.28 1006.73 1006.97 1007.67 1008.31 1009.08 1010.00 1011.08 1012.00 1012.91 1013.71 1014.44 1015.24 1016.28 1017.20 1018.35 1019.09
Wind_Speed
3 5 1 5 4 4 4 8 4 11 5 5 4 7 5 3 8 6 4 9 20 17 16 17 19 20 21 21 20 18 17 18 18 17 16 14 14 13 12 11 11 13 13 12 11 11 9 9 10
3 5 5 3 4 3 6 6 5 7 7 4 8 6 2 2 5 7 6 8 22 16 13 14 19 21 21 21 20 18 17 17 17 17 16 15 14 12 11 11 10 11 13 13 10 9 7 7 10
3 2 4 4 4 6 5 3 8 15 13 8 6 4 6 8 8 7 11 15 18 15 14 12 17 19 20 21 20 18 17 16 16 16 17 16 15 15 14 13 11 11 13 13 9 8 6 7 9
3 5 4 2 8 9 7 15 12 17 10 9 5 8 3 3 8 10 21 19 17 14 13 15 15 18 19 20 20 18 17 16 16 15 16 17 17 17 17 13 12 12 12 11 9 7 7 6 8
4 4 2 2 8 8 7 8 11 16 5 3 3 5 1 4 14 21 20 19 19 13 11 13 15 17 19 19 19 17 16 15 16 15 15 16 17 17 16 15 14 13 13 12 10 8 6 7 11
4 4 2 4 8 8 7 10 7 6 6 4 6 5 1 9 17 14 16 17 15 15 13 13 15 15 17 18 18 17 14 14 15 16 16 16 15 15 16 16 16 14 12 12 11 8 5 6 14
6 4 7 5 8 12 8 8 7 7 6 5 6 5 2 5 8 12 12 12 12 13 13 10 11 13 14 15 15 16 15 13 14 17 16 16 15 14 15 16 18 16 13 11 10 8 5 6 13
6 6 4 4 7 16 3 9 5 6 8 10 10 7 5 6 10 12 9 10 11 13 12 11 8 9 10 10 13 14 14 14 16 15 16 15 15 15 16 14 15 17 16 13 10 6 4 7 13
5 2 6 7 6 15 15 3 5 4 1 4 6 6 8 15 16 14 13 8 10 9 12 11 10 8 7 6 9 12 16 17 17 15 18 13 7 8 11 12 15 14 13 13 12 10 7 9 16
6 5 11 8 10 12 12 5 5 3 7 6 2 6 15 17 17 19 17 15 14 15 14 13 11 10 9 8 8 8 11 9 8 7 9 7 6 6 8 11 14 16 14 12 10 8 7 9 5
4 6 6 10 10 12 10 8 2 1 6 8 5 6 13 8 9 14 15 20 22 16 12 14 14 12 11 9 6 5 5 5 5 8 8 6 5 4 4 3 4 4 10 4 5 4 2 5 5
6 11 6 9 4 4 6 5 9 6 8 8 4 14 16 13 12 15 15 16 16 17 15 15 14 13 11 8 7 7 6 6 5 7 8 7 5 5 5 4 5 5 4 6 5 3 4 6 7
7 7 8 9 12 7 7 9 8 14 10 9 6 13 20 19 18 14 12 11 13 16 16 17 16 14 11 11 7 8 8 7 8 8 8 7 6 6 5 4 4 4 5 5 5 5 5 6 7
4 8 10 8 10 9 7 11 2 13 10 9 9 11 16 20 23 16 14 16 20 18 19 18 17 15 14 12 11 8 8 8 8 7 9 9 7 6 6 5 5 4 5 5 5 6 5 5 6
6 10 12 14 5 9 4 19 12 15 10 12 17 15 15 21 19 22 24 23 26 23 21 21 21 18 16 17 14 10 9 9 9 8 11 11 9 8 8 7 5 5 5 7 5 5 5 5 6
7 4 7 2 7 10 7 22 20 19 11 18 18 16 13 21 24 26 23 23 19 18 23 20 18 20 18 15 13 12 11 9 9 8 9 12 12 10 7 6 6 5 5 6 6 6 5 5 7
1 9 9 12 8 9 9 15 14 14 12 14 15 17 16 11 19 22 22 23 21 21 21 22 24 24 22 18 13 12 14 12 10 9 10 14 13 11 8 6 5 7 7 6 8 4 7 6 5
5 6 7 7 9 12 19 21 11 11 8 10 9 8 9 10 19 24 22 18 19 20 21 20 19 20 20 14 13 9 7 9 9 9 10 12 11 12 8 6 7 6 6 5 4 7 3 4 7
9 16 20 17 14 17 20 25 13 7 7 9 10 9 10 10 11 13 21 21 20 19 20 22 22 22 16 13 14 13 13 10 10 11 13 14 11 11 10 7 7 6 8 9 7 4 7 3 5
14 18 19 14 8 13 17 31 9 5 7 8 16 16 15 18 20 14 17 12 18 26 25 23 24 23 20 16 13 9 11 5 9 8 10 12 12 12 10 10 9 9 6 7 6 6 4 3 8
13 13 16 22 8 6 8 23 2 3 6 14 13 9 13 12 14 19 20 19 15 20 23 24 25 26 22 19 11 6 6 4 5 7 9 9 9 9 8 10 9 9 7 8 8 7 8 8 6
15 13 16 12 4 10 5 14 15 0 11 12 12 14 15 18 17 17 19 22 17 15 15 17 19 19 18 17 15 17 15 11 8 8 6 8 10 9 7 9 9 8 5 6 6 5 3 6 10
8 9 7 4 4 4 6 4 15 6 6 7 14 13 15 16 18 22 19 16 17 20 11 12 13 14 14 17 17 14 14 12 8 8 11 11 9 9 8 8 7 8 6 6 7 6 5 3 5
7 4 7 3 4 6 8 8 19 3 3 4 7 10 12 14 15 16 19 21 18 17 18 4 12 13 14 15 17 20 19 14 11 11 11 9 8 7 8 7 6 6 6 7 5 5 6 4 3
9 5 4 3 2 13 4 7 8 6 6 7 5 4 6 10 14 16 18 17 21 17 14 18 7 12 13 16 17 18 15 16 16 15 12 13 10 7 10 8 8 6 6 6 6 5 5 5 3
3 5 4 6 5 4 4 7 2 5 4 6 6 7 10 11 6 8 12 14 16 19 17 9 14 15 10 11 11 7 5 7 8 10 10 10 10 10 11 8 7 7 9 8 7 5 4 5 5
2 3 1 3 5 4 6 1 3 6 3 5 6 6 5 6 7 5 3 3 6 13 14 15 14 16 9 6 9 8 11 12 11 15 12 10 10 9 10 10 10 9 9 10 9 6 6 7 6
3 2 1 2 5 11 5 6 5 7 5 1 4 6 7 8 8 7 5 6 3 3 2 9 14 16 7 9 7 3 4 10 10 9 10 12 10 11 12 12 11 11 11 10 10 8 7 9 4
1 1 2 1 2 4 9 7 4 11 11 6 7 10 11 9 8 8 7 7 8 5 4 1 5 11 15 6 4 6 5 4 7 10 10 11 11 13 13 14 14 15 13 11 11 11 11 10 7
5 8 6 5 5 3 3 5 4 1 4 9 8 13 10 9 10 9 8 7 7 7 6 5 5 4 3 7 8 5 5 6 6 6 5 7 10 11 13 14 14 14 14 14 15 14 11 11 10
Wind_Direction
249 214 115 47 38 68 246 260 271 289 283 228 333 122 161 86 142 213 25 116 127 147 157 154 154 148 144 141 141 141 140 135 132 129 127 126 124 124 126 126 126 121 113 103 97 90 80 67 63
209 153 39 87 91 327 276 231 250 272 262 159 104 131 96 114 98 133 108 147 135 145 152 153 156 151 148 144 142 144 143 138 135 133 131 130 127 126 132 122 119 122 119 108 99 94 80 67 65
217 84 97 133 155 202 231 258 315 297 296 248 125 36 145 136 143 139 131 141 134 146 151 154 157 152 150 146 144 147 144 140 135 134 130 132 128 122 120 116 119 110 101 95 104 99 81 60 62
124 15 24 113 251 250 263 285 293 289 292 260 128 99 25 299 148 150 140 144 144 150 146 151 161 154 151 148 145 146 144 142 136 135 133 131 131 127 120 113 114 125 116 111 116 101 83 61 59
42 62 41 289 260 271 274 266 291 291 232 274 107 141 69 16 115 134 145 148 146 149 144 153 155 157 154 151 147 146 146 147 141 137 129 125 129 130 125 120 128 130 128 123 112 97 85 68 57
29 97 52 259 273 277 274 289 267 284 312 345 75 80 307 120 131 153 149 149 147 145 146 156 156 159 157 154 150 148 150 150 145 140 135 131 131 133 129 127 128 126 127 122 112 102 72 63 70
155 87 223 235 272 295 291 305 337 329 316 346 98 85 299 124 151 145 143 140 134 142 143 152 162 161 159 155 153 151 153 153 147 145 143 133 130 139 137 138 136 134 131 120 118 120 109 73 80
147 138 268 216 273 281 268 320 295 39 307 319 140 152 193 199 142 140 117 129 138 145 151 155 164 165 160 163 160 158 155 152 151 147 134 131 141 143 143 141 143 142 137 132 126 118 101 83 93
115 57 261 225 219 263 284 269 268 252 18 322 341 163 187 137 130 128 127 136 145 155 160 160 162 169 155 151 168 149 151 155 152 148 131 136 148 146 146 149 147 144 141 142 144 141 122 82 107
145 177 239 201 239 273 279 253 285 12 345 297 9 25 134 142 147 152 163 167 170 169 172 166 165 169 159 159 166 145 146 151 149 141 144 147 151 145 149 151 152 152 151 150 148 143 129 109 114
222 217 251 271 250 257 273 295 250 165 277 268 243 140 152 156 169 167 175 176 179 172 169 175 166 167 165 160 156 150 144 148 146 144 154 147 148 151 140 143 149 148 156 146 139 130 90 106 113
276 275 236 272 259 309 283 272 303 210 244 256 218 162 166 176 191 185 181 178 176 177 174 172 171 168 168 160 165 158 160 163 160 163 158 157 162 156 159 160 161 158 146 145 143 136 129 114 113
276 278 281 282 298 280 269 264 250 266 257 270 259 167 178 190 201 195 190 178 173 182 185 181 173 174 166 164 167 171 176 173 172 171 166 165 170 172 163 172 168 168 149 151 146 143 129 114 114
293 288 286 293 309 284 294 281 257 266 264 263 255 198 195 192 196 195 180 182 190 186 187 183 187 183 169 173 174 179 180 178 173 177 177 173 175 172 172 171 184 179 166 159 149 149 138 128 115
307 317 316 290 286 280 341 282 266 275 276 265 268 262 194 204 197 198 196 191 188 191 183 186 184 182 183 178 168 183 187 184 181 182 181 173 177 179 174 174 182 190 173 153 140 127 117 113 114
314 304 297 36 330 278 146 283 282 277 271 271 265 260 236 214 199 205 202 203 192 187 192 184 185 183 180 183 182 182 190 186 187 180 182 185 180 177 174 173 182 170 158 156 151 146 135 131 127
278 268 262 297 269 268 180 270 268 284 272 263 267 263 252 208 213 217 207 201 190 189 187 189 190 187 181 178 183 188 191 189 193 183 186 182 182 178 171 171 171 160 162 164 155 144 146 148 133
240 248 239 241 296 302 290 280 275 270 288 277 284 285 281 263 210 215 212 195 191 189 190 192 192 188 183 178 179 184 178 202 179 194 189 188 176 172 164 160 165 157 152 148 147 148 137 145 149
254 269 274 276 279 282 291 289 295 298 313 318 289 285 300 305 328 254 215 196 189 187 188 191 189 192 181 182 183 181 189 184 189 188 188 180 180 174 167 164 160 164 173 171 166 141 146 123 134
250 262 272 281 276 272 280 281 306 295 286 19 35 46 24 7 2 11 6 252 196 189 194 193 193 189 192 191 190 186 180 174 186 177 189 190 179 170 167 164 172 176 160 165 171 154 134 119 167
257 271 287 281 299 294 293 281 29 342 5 51 48 41 34 23 10 1 9 352 238 208 196 193 198 196 191 186 173 142 123 106 149 179 181 187 183 176 165 167 169 172 172 181 183 171 160 155 202
273 244 265 283 16 283 85 292 292 9 84 53 31 30 19 13 15 14 8 12 345 241 222 224 196 197 195 180 175 176 177 177 198 186 171 169 181 177 168 167 166 168 157 169 185 172 157 141 182
265 239 228 201 212 300 231 205 275 37 62 67 39 19 15 19 14 9 2 9 16 1 213 213 212 205 194 179 177 181 192 190 165 164 165 177 175 185 177 172 165 168 163 163 170 164 163 147 150
294 246 224 212 158 239 254 198 277 121 143 71 47 18 11 9 11 13 12 1 8 18 3 238 208 199 192 187 184 182 185 185 163 164 169 170 174 175 175 175 165 156 155 164 163 154 157 166 142
38 47 316 294 218 253 154 211 247 127 93 82 68 15 4 17 8 7 7 9 8 353 18 3 280 212 198 196 190 186 186 179 176 172 169 164 172 181 181 171 164 163 147 139 130 135 134 155 151
319 142 176 246 247 277 294 248 252 141 110 91 60 15 17 21 7 20 2 357 1 355 355 358 26 314 218 202 196 160 159 192 171 180 170 172 178 178 166 167 157 138 130 124 120 118 110 110 113
354 244 176 198 221 255 230 339 238 183 128 63 38 10 331 308 315 285 292 81 16 328 350 0 358 13 12 253 169 176 167 195 183 172 177 171 168 170 158 149 143 141 134 132 128 112 103 92 92
178 156 138 243 239 250 230 236 225 185 186 151 310 307 318 297 297 306 301 315 256 178 324 354 5 349 31 21 1 329 197 160 162 170 173 169 158 157 155 148 138 132 126 126 117 109 103 99 96
24 327 60 225 224 238 271 262 171 194 200 178 255 257 260 279 276 276 282 254 276 277 247 358 36 5 340 288 159 142 226 243 147 157 165 166 161 160 165 158 149 149 149 144 133 131 141 131 138
216 246 183 151 270 247 258 251 8 298 195 220 280 271 268 242 254 266 263 246 241 255 254 232 188 180 207 339 322 318 233 185 171 165 166 151 164 163 160 157 154 154 154 153 151 155 151 156 160